Погода в Туре

Хотите узнать прогноз погоды в Туре? Тогда Вам сюда: Погода в Туре

Поиск расширенной информации на нашем сайте:

Полезная информация:

Новости сайта



02.01.2020
Опубликован Долгосрочный прогноз погоды по городам России и ближнего зарубежья на январь 2020 года.
Карты: Прогноз на январь и февраль 2020 года, Сравнение прогнозируемой аномалии приземной температуры воздуха на январь 2020 года по разным моделям.




Погода в Туре - сегодня

Время (UTC), дата Ветер
(°,м/с) 
Видим.   Явления Облачность Т
(°С)
Тd
(°С)
f(%) Тe
(°С)
Pmin
(гПа)
dP
(гПа)
Po
(мм)
O2
(г/м3)
Тmin Tmax R s Состояние
почвы
00 30.11.20 310 (СЗ) н/о    3/0 верхняя 
[Ci fib]
-27.3 -29.8 79 -28  1033.9  -0.8  755  340  -30.3      29  равномерный
сухой снег
100% 
03 30.11.20 340 (С) 20000 м    4/0 средняя, верхняя 
[Ac trans|Ci fib]
-22 -23.9 84 -22  1032.5  -0.9  755  332           
06 30.11.20 тихо ()   20000 м    8/4 1000 м средняя, верхняя 
[Sc|Ac trans|Ci fib]
-20.4 -22.3 85 -20  1031.6  -0.7  754  330           
09 30.11.20 тихо ()   н/о    8/3 1000 м средняя, верхняя 
[Sc|Ac trans|Ci sp]
-18.3 -20.2 85 -18  1030.9  -0.5  754  327           
12 30.11.20 280 (З) н/о    10/0 средняя, верхняя 
[Ac trans|Cs]
-15.6 -17.5 85 -16  1029.5  -1.1  753  323    -15.6       
15 30.11.20 290 (З) н/о    4/0 средняя 
[Ac trans]
-16.3 -18.2 85 -19  1028.9  -0.7  752  324           
18 30.11.20 310 (СЗ) н/о    3/0 средняя, верхняя 
[Ac lent|Ci fib]
-17.2 -19.1 85 -20  1028  -0.8  752  325           
21 30.11.20 290 (З) н/о    9/3 1000 м средняя 
[Sc|Ac As]
-15.8 -17.7 85 -18  1027.2  -0.7  751  323           
00 01.12.20 310 (СЗ) н/о    9/5 1000 м средняя, верхняя 
[Sc|Ac trans|Ci fib]
-14.5 -16.5 85 -17  1026.4  -0.6  751  321  -17.2      29  равномерный
сухой снег
100% 
03 01.12.20 280 (З) 20000 м    8/3 1000 м средняя, верхняя 
[Sc|Ac trans|Ci fib]
-14.4 -17.1 80 -17  1027.1  0.7  751  321           
06 01.12.20 300 (СЗ) 20000 м    8/3 1000 м средняя 
[Sc|Ac trans]
-13.5 -16.2 80 -16  1027.2  0.2  751  320           
09 01.12.20 270 (З) н/о    10/5 1000 м средняя 
[Sc|Ac und]
-12 -14.7 80 -15  1027.5  0.4  752  318           
12 01.12.20 260 (З) н/о    10/5 1000 м средняя 
[Sc|Ac und]
-11 -14.6 75 -15  1028.2  0.6  752  317    -11       
15 01.12.20 300 (СЗ) н/о    9/3 1000 м средняя, верхняя 
[Sc|Ac trans|Ci sp]
-12.4 -15.9 75 -14  1027.9  -0.4  752  319           
18 01.12.20 280 (З) н/о    6/0 средняя, верхняя 
[Ac trans|Ci fib]
-12.5 -16.1 74 -16               
21 01.12.20 270 (З) н/о    8/0 средняя, верхняя 
[Ac trans|Ci sp]
-12.3 -15.8 75 -17  1028.8  753  319           
00 02.12.20 270 (З) н/о    8/0 средняя, верхняя 
[Ac trans|Ci sp]
-12.1 -15.8 74 -17      -13.2         
03 02.12.20 270 (З) 2000 м  снег  10/0 средняя 
[Ac As]
-11.2 -14 80 -14  1027.2  -0.2  752  317           
06 02.12.20 240 (ЮЗ) 20000 м  {снег}  10/10 600 м кучево-дожд. 
[Cb cap]
-9.2 -13.2 73 -13  1025.4  -1.6  750  314           
09 02.12.20 250 (З) н/о  позёмок  10/9 600 м кучево-дожд., средняя 
[Cb cap|Ac trans]
-9 -12.9 73 -13  1024.3  -1.1  750  313           
12 02.12.20 250 (З) 4-10{10}  н/о  позёмок{ливн. осадки}  10/10 1000 м кучево-дожд. 
[Cb cap]
-9.2 -12.7 76 -13  1021.8  -2.4  748  313    -8.8  0.7     
15 02.12.20 250 (З) 4{10}  н/о  позёмок  10/10 1000 м кучево-дожд. 
[Cb cap]
-8.8 -12.6 74 -13  1020.8  -1  747  312           
18 02.12.20 220 (ЮЗ) 3{10}  н/о  позёмок  10/5 1000 м средняя, верхняя 
[Sc|Ac trans|Ci sp]
-8.9 -12.8 73 -12               
21 02.12.20 250 (З) н/о  позёмок  10/5 1000 м средняя, верхняя 
[Sc|Ac trans|Ci sp]
-9.7 -14.4 69 -13  1017.2  -1.8  744  312           
00 03.12.20 230 (ЮЗ) н/о  позёмок  10/5 1000 м кучево-дожд., средняя 
[Cb cap|Ac und]
-9.7 -13.3 75 -13  1015.1  -2.1  743  311  -10.1      29  равномерный
сухой снег
100% 
Время (UTC), дата Ветер
(°,м/с) 
Видим.   Явления Облачность Т
(°С)
Тd
(°С)
f(%) Тe
(°С)
Pmin
(гПа)
dP
(гПа)
Po
(мм)
O2
(г/м3)
Тmin Tmax R s Состояние
почвы

Для получения пояснительной информации подведите курсор к названию столбца.

ПОГОДА в Туре - архив

Всё, что Вы хотите узнать о погоде в Туре - удобно и подробно!

Выберите нужную дату (начиная с 1 января 2019* года) и нажмите кнопку "Найти".
Будут отображены архивные сводки погоды по пункту Тура, начиная с указанной даты.


Отображать данные в формате CSV (для использования в таблицах Excel)


Внимание! Наш архив погоды предназначен исключительно для личного некоммерческого использования в познавательных целях. Если Вам необходимы официальные справки о состоянии погоды (для производственных, юридических, коммерческих и т.п. целей), обращайтесь в органы Росгидромета.

*Примечание: данная дата относится к архиву по метеостанциям СССР (Россия, СНГ, Балтия).
Архив по метеостанциям Зарубежной Европы и Азии (кроме Китая) хранится 10 дней, по другим регионам земного шара (Китай, Африка, Америка, Австралия, Океания) - 1 день.

Тура - район местоположения метеостанции


Название, широта, долгота, высота метеостанции:
Тура 64.3°ш. 100.2°д. 168 м над ур. моря [Российская Федерация]

Дополнительная информация

В oтличие oт бoльшинства пoгoдных сайтoв мы публикуем пoдрoбную метеoинфoрмацию в детальнoм прoфессиoнальнoм фoрмате.

Характеристики температуры и влажнoсти вoздуха измеряются на высoте 2 м в тени вдали oт зданий и деревьев.
Скoрoсть ветра измеряется на высoте 10 м (на урoвне рoста челoвека скoрoсть ветра ниже в 1.5-2 раза). Если метеoстанция нахoдится в гoрoде или в лесу, тo скoрoсть ветра занижена на 2-4 м/с пo сравнению с oткрытым местoм. Скoрoсть ветра над акватoриями крупных рек и oзёр, а также на вершинах хoлмoв на 2-5 м/с выше, чем в oбычных услoвиях.
Атмoсфернoе давление в разных тoчках местнoсти мoжет значительнo oтличаться oт давления на метеoстанции, в зависимoсти oт услoвий рельефа (при пoдъёме на 10 м давление пoнижается примернo на 1 мм рт.ст.).